Massena, NY
on Saturday, December 9, 2017

Saturday
       
Previous Day Next Day
Daily Summary
 ActualAverageRecord
Temperature
Mean Temperature °F °C 25°F -4°C  
Max Temperature 33°F 1°C 33°F 1°C 63°F 17°C (1966)
Min Temperature 27°F -3°C 17°F -8°C -14°F -25°C (1989)
Degree Days
Heating Degree Days 35 40  
Month to date heating degree days 263 344  
Since 1 July heating degree days 1662 2113  
Cooling Degree Days 0 0  
Month to date cooling degree days 0 0  
Year to date cooling degree days 399 363  
Moisture
Dew Point 25°F -4°C   
Average Humidity 78    
Maximum Humidity 92    
Minimum Humidity 63    
Precipitation
Precipitation T in / T cm 0.09 in / 2.29 cm 1.25 in / 3.17 cm (1970)
Month to date precipitation 0.21 0.78  
Year to date precipitation 38.26 33.31  
Wind
Wind Speed 3 mph / 4 km/h   
Max Wind Speed 15 mph / 24 km/h   
Max Gust Speed 20 mph / 32 km/h   
Visibility 9 miles / 14 kilometers   
Events Snow   

Key: T is trace of precipitation, MM is missing value
Source: NWS Daily Summary
Time(EST)TemperatureDew PointHumidity Pressure Visibility Wind DirectionWind SpeedGust SpeedPrecipitationEvents Conditions
12:53 AM 28.9°F -1.7°C 19.0°F -7.2°C 67% 29.91 in / 1012.9 hPa 10.0 miles / 16.1 kilometers SSW 10.4 mph / 16.7 km/h - N/A   Partly Cloudy
1:53 AM 28.0°F -2.2°C 19.9°F -6.7°C 72% 29.92 in / 1013.0 hPa 10.0 miles / 16.1 kilometers SW 5.8 mph / 9.3 km/h - N/A   Scattered Clouds
2:53 AM 28.9°F -1.7°C 21.9°F -5.6°C 75% 29.93 in / 1013.5 hPa 10.0 miles / 16.1 kilometers SSW 6.9 mph / 11.1 km/h - N/A   Overcast
3:53 AM 28.9°F -1.7°C 21.9°F -5.6°C 75% 29.93 in / 1013.3 hPa 10.0 miles / 16.1 kilometers SSW 4.6 mph / 7.4 km/h - N/A   Overcast
4:53 AM 28.0°F -2.2°C 21.9°F -5.6°C 78% 29.93 in / 1013.5 hPa 10.0 miles / 16.1 kilometers South 4.6 mph / 7.4 km/h - N/A   Overcast
5:53 AM 28.0°F -2.2°C 21.9°F -5.6°C 78% 29.95 in / 1014.1 hPa 10.0 miles / 16.1 kilometers SSW 3.5 mph / 5.6 km/h - N/A   Overcast
6:53 AM 27.0°F -2.8°C 24.1°F -4.4°C 89% 29.95 in / 1014.2 hPa 10.0 miles / 16.1 kilometers Calm Calm - N/A   Overcast
7:53 AM 28.0°F -2.2°C 25.0°F -3.9°C 88% 29.96 in / 1014.6 hPa 10.0 miles / 16.1 kilometers Calm Calm - N/A   Overcast
8:53 AM 30.0°F -1.1°C 24.1°F -4.4°C 79% 29.96 in / 1014.6 hPa 6.0 miles / 9.7 kilometers Calm Calm - 0.00 in / 0.0 cm Snow Light Snow
9:53 AM 30.0°F -1.1°C 26.1°F -3.3°C 85% 29.97 in / 1014.8 hPa 4.0 miles / 6.4 kilometers Calm Calm - 0.00 in / 0.0 cm Snow Light Snow
10:53 AM 30.9°F -0.6°C 26.1°F -3.3°C 82% 29.94 in / 1013.8 hPa 6.0 miles / 9.7 kilometers Calm Calm - 0.00 in / 0.0 cm Snow Light Snow
11:48 AM 30.2°F -1.0°C 26.6°F -3.0°C 86% 29.90 in / 1012.4 hPa 5.0 miles / 8.0 kilometers South 3.5 mph / 5.6 km/h - 0.00 in / 0.0 cm Snow Light Snow
11:53 AM 30.9°F -0.6°C 27.0°F -2.8°C 85% 29.92 in / 1013.1 hPa 6.0 miles / 9.7 kilometers SE 3.5 mph / 5.6 km/h - 0.00 in / 0.0 cm   Overcast
12:53 PM 30.9°F -0.6°C 27.0°F -2.8°C 85% 29.90 in / 1012.4 hPa 8.0 miles / 12.9 kilometers Calm Calm - 0.00 in / 0.0 cm   Overcast
1:06 PM 30.9°F -0.6°C 26.1°F -3.3°C 82% 29.87 in / 1011.4 hPa 10.0 miles / 16.1 kilometers Calm Calm - N/A   Overcast
1:45 PM 32.0°F 0.0°C 27.0°F -2.8°C 82% 29.86 in / 1011.1 hPa 5.0 miles / 8.0 kilometers Calm Calm - 0.00 in / 0.0 cm   Haze
1:53 PM 32.0°F 0.0°C 27.0°F -2.8°C 82% 29.88 in / 1011.7 hPa 8.0 miles / 12.9 kilometers Calm Calm - 0.00 in / 0.0 cm   Overcast
2:53 PM 32.0°F 0.0°C 26.1°F -3.3°C 79% 29.86 in / 1011.2 hPa 10.0 miles / 16.1 kilometers ENE 3.5 mph / 5.6 km/h - N/A   Partly Cloudy
3:53 PM 30.9°F -0.6°C 26.1°F -3.3°C 82% 29.85 in / 1010.8 hPa 10.0 miles / 16.1 kilometers NE 6.9 mph / 11.1 km/h - N/A   Clear
4:53 PM 28.0°F -2.2°C 25.0°F -3.9°C 88% 29.84 in / 1010.4 hPa 10.0 miles / 16.1 kilometers ENE 3.5 mph / 5.6 km/h - N/A   Clear
5:53 PM 28.0°F -2.2°C 25.0°F -3.9°C 88% 29.83 in / 1010.0 hPa 10.0 miles / 16.1 kilometers ENE 3.5 mph / 5.6 km/h - N/A   Clear
6:53 PM 27.0°F -2.8°C 25.0°F -3.9°C 92% 29.81 in / 1009.4 hPa 10.0 miles / 16.1 kilometers Calm Calm - N/A   Overcast
7:53 PM 28.0°F -2.2°C 26.1°F -3.3°C 92% 29.80 in / 1009.0 hPa 10.0 miles / 16.1 kilometers NNE 3.5 mph / 5.6 km/h - N/A   Overcast
8:53 PM 28.9°F -1.7°C 27.0°F -2.8°C 92% 29.78 in / 1008.4 hPa 10.0 miles / 16.1 kilometers Calm Calm - N/A   Overcast
9:53 PM 28.9°F -1.7°C 27.0°F -2.8°C 92% 29.76 in / 1007.8 hPa 9.0 miles / 14.5 kilometers Calm Calm - N/A   Overcast
10:53 PM 28.9°F -1.7°C 26.1°F -3.3°C 89% 29.76 in / 1007.7 hPa 10.0 miles / 16.1 kilometers Calm Calm - N/A   Overcast
11:53 PM 28.9°F -1.7°C 24.1°F -4.4°C 82% 29.75 in / 1007.3 hPa 10.0 miles / 16.1 kilometers Calm Calm - N/A   Overcast